Tracking 30685 objects as of 18-Jun-2025
HD Live streaming from Space Station
objects crossing your sky now

NOAA 16 DEB

Track NOAA 16 DEB now!
10-day predictions


NORAD ID: 41499
Int'l Code: 2000-055LX
Perigee: 748.7 km
Apogee: 788.2 km
Inclination: 98.7 °
Period: 100.1 minutes
Semi major axis: 7139 km
RCS: Unknown
Launch date: September 21, 2000
Source: United States (US)
Launch site: AIR FORCE WESTERN TEST RANGE (AFWTR)

Note: This is SATELLITE DEBRIS
Your satellite tracking list
Your tracking list is empty




NASA's NSSDC Master Catalog

Two Line Element Set (TLE):
1 41499U 00055LX  25169.47283986  .00005845  00000-0  18935-2 0  9997
2 41499  98.6967 249.3525 0027678 246.8262 113.0008 14.39139574480577
Source of the keplerian elements: AFSPC